Regional Weather Roundup
Issued by NWS

Home | Current Version | Previous Version | Text Only | Print | Product List | Glossary On
Versions: 1 2 3 4 5 6 7 8 9 10 11 12 13 14 15 16 17 18 19 20 21 22 23 24 25 26 27 28 29 30 31 32 33 34 35 36 37 38 39 40 41 42 43 44 45 46 47 48 49 50
000
ASUS45 KTFX 281810
RWRMT
MONTANA REGIONAL WEATHER ROUNDUP
NATIONAL WEATHER SERVICE GREAT FALLS MT
1200 PM MDT FRI APR 28 2017

NOTE: "FAIR" INDICATES FEW OR NO CLOUDS BELOW 12000 FEET WITH NO
SIGNIFICANT WEATHER AND/OR OBSTRUCTIONS TO VISIBILITY.

MTZ001>007-043-281900-
WEST OF THE DIVIDE

CITY           SKY/WX    TMP DP  RH WIND       PRES   REMARKS
KALISPELL      CLOUDY    45  37  73 SE7       30.08S
MISSOULA       CLOUDY    46  33  60 VRB3      30.11R
BUTTE          CLOUDY    42  20  41 N10G18    30.03R
MULLAN PASS    FOG       32  30  92 CALM      30.07R VSB<1/4
ANACONDA         N/A     43  21  42 NE6       30.04R
DEER LODGE       N/A     43  23  45 NW13      30.07R
EUREKA           N/A     48  34  57 CALM      30.08S
HAMILTON         N/A     45  27  49 CALM      30.09S
LIBBY            N/A     48  34  57 CALM      30.08S
PLAINS           N/A     51  35  54 CALM      30.10R
THOMPSON FALLS   N/A     47  37  68 W5        30.15
$$

MTZ008-052>055-281900-
SOUTHWEST MONTANA

CITY           SKY/WX    TMP DP  RH WIND       PRES   REMARKS
BOZEMAN        CLOUDY    43  30  60 W9        30.01R
DILLON         CLOUDY    41  21  44 N13       29.99S
W YELLOWSTONE  CLOUDY    36  21  55 NE20      29.92R WCI  25
THREE FORKS      N/A     44  11  26 N8        30.01R
TWIN BRIDGES     N/A     45  19  35 N8        29.99R
$$

MTZ009-010-012-014-046-048-049-054-281900-
EAST SLOPES AND CENTRAL MONTANA

CITY           SKY/WX    TMP DP  RH WIND       PRES   REMARKS
CUT BANK       LGT SNOW  35  33  92 N10       30.09R FOG     WCI  27
GREAT FALLS    CLOUDY    47  35  63 VRB3      30.04R
MALMSTROM AFB  CLOUDY    45  36  69 SW3       30.05R
HELENA         CLOUDY    49  27  42 N9        30.03R
AUGUSTA        PTSUNNY   44  31  59 N8        30.03S
BOWMANS CRNR   PTSUNNY   42  26  52 CALM      30.02R
CHOTEAU          N/A     43  36  75 N9G16     30.07R
FAIRFIELD      PTSUNNY   47  33  59 NW10      30.04R
POWER          PTSUNNY   45  35  66 N10       30.04R
RAYNESFORD     PTSUNNY   44  33  67 N9        30.04R
ULM            PTSUNNY   45  35  68 CALM      30.05R
$$

MTZ011-013-016-021-045-047-050-051-281900-
NORTH CENTRAL MONTANA

CITY           SKY/WX    TMP DP  RH WIND       PRES   REMARKS
HAVRE          CLOUDY    49  37  63 W10       30.04R
LEWISTOWN      LGT RAIN  39  34  82 N12       30.03R WCI  32
CHINOOK          N/A     50  39  66 W3        30.04S
DENTON           N/A     47  35  61 MISG      30.00R
FORT BENTON      N/A     46  34  61 N8        30.05S
GEYSER         PTSUNNY   43  32  63 NE5       30.03R
GRASS RANGE    LGT RAIN  37  35  93 CALM      30.01R
JUDITH GAP     PTSUNNY   40  33  76 N16G25    30.00R
STANFORD       DRIZZLE   40  33  78 N5        30.03R
WINIFRED         N/A     45  35  67 NE7       30.03R
$$

MTZ017>020-022>027-061-062-281900-
NORTHEAST MONTANA

CITY           SKY/WX    TMP DP  RH WIND       PRES   REMARKS
GLASGOW        CLOUDY    52  20  28 VRB6      30.02S
JORDAN           N/A     50  27  40 CALM      30.01R
SIDNEY         SUNNY     53  21  28 VRB6      30.04S
WOLF POINT     SUNNY     54  17  23 VRB6      30.03S
MALTA          PTSUNNY   52  32  46 CALM      30.02
PLENTYWOOD       N/A     50  18  27 SE5       30.04R
POPLAR           N/A     52  18  25 N3        30.04R
SCOBEY           N/A     51  17  26 SE1       30.01S
$$

MTZ028>42-056>058-281900-
SOUTHCENTRAL AND SOUTHEAST MONTANA

CITY           SKY/WX    TMP DP  RH WIND       PRES   REMARKS
BAKER          MOSUNNY   48  25  40 E7        30.01R
BILLINGS       CLOUDY    44  36  73 NE9       30.00R
LIVINGSTON     CLOUDY    37  35  92 S7        29.99R WCI  32
MILES CITY     CLOUDY    50  27  40 SE7       30.01R
BIG TIMBER     MOSUNNY   37  34  87 N23G29    30.03R WCI  26
LAUREL           N/A     44  33  65 N7        29.98F
ROUNDUP          N/A     46  34  63 N8        29.93R
$$

REGIONAL REPORTS...DAKOTAS

CITY           SKY/WX    TMP DP  RH WIND       PRES   REMARKS
WILLISTON      SUNNY     54  23  30 VRB3      30.05S
MINOT          SUNNY     52  14  22 NW8       30.05R
DICKINSON      SUNNY     49  20  31 E14G20    30.00S
BEACH            N/A     48  19  32 VRB7G15   30.04S
TIOGA            N/A     48  18  29 VRB7      30.05S
WATFORD CITY     N/A     50  19  29 VRB5      30.04S
BISMARCK       SUNNY     53  18  25 N12       30.04S
GRAND FORKS    SUNNY     49  29  46 N20G26    29.99S
FARGO          SUNNY     48  27  44 NW9       30.00S
BUFFALO SD       N/A     47  26  44 NE12      29.93R
RAPID CITY     CLOUDY    43  28  55 E13       29.96R
$$

REGIONAL REPORTS...WYOMING/IDAHO/WASHINGTON

CITY           SKY/WX    TMP DP  RH WIND       PRES   REMARKS
GILLETTE       SNOW      34  33  96 N12       29.94R WCI  25
SHERIDAN       CLOUDY    38  32  79 NW10      29.98R WCI  31
BUFFALO WY     SNOW      33  30  88 N12       29.96R VSB 1/4 WCI  24
CODY           CLOUDY    37  32  82 N21G29    29.92R WCI  26
YELLOWSTONE LA   N/A     33  21  61 NW9G24    29.88R WCI  25
IDAHO FALLS    CLOUDY    43  29  57 NW17      29.93S
SALMON         MOSUNNY   46  19  34 N8G16     30.03S
BOISE          SUNNY     50  32  50 NW23G31   30.08S
SPOKANE        MOSUNNY   48  33  56 CALM      30.15R
$$

REGIONAL REPORTS...ALBERTA

CITY           SKY/WX    TMP DP  RH WIND       PRES   REMARKS
EDMONTON       SUNNY     43  28  56 S3        30.08S
CALGARY        CLOUDY    41  25  52 N10       30.06S
LETHBRIDGE     PTSUNNY   39  36  87 W7        30.10S
MEDICINE HAT   PTSUNNY   46  27  46 W9        30.07S
CARDSTON         N/A     39  34  81 SW5         N/A
MILK RIVER       N/A     37  34  87 N6          N/A
$$

REGIONAL REPORTS...SASKATCHEWAN

CITY           SKY/WX    TMP DP  RH WIND       PRES   REMARKS
SWIFT CURRENT  CLOUDY    43  32  65 NW15      30.02R
REGINA         MOSUNNY   55  16  21 VRB7      30.01F
SASKATOON      CLOUDY    50  25  37 N5        30.02S
CYPRESS HILLS    N/A     32  28  86 NW5         N/A
VAL MARIE        N/A     54  25  32 SW3         N/A
ASSINIBOIA       N/A     45  27  49 NE5         N/A
$$



USA.gov is the U.S. government's official web portal to all federal, state and local government web resources and services.